SCP
3 2 2 1 1 1 1 0 0 0 0 0 0 0 0 0 0 0 0 0 1 1 1 1 1 1 1 2 1 1 1 1 2 2 2 2 2 1 1 1 1 1 1 1 1 1 1 1 1
3 2 2 2 1 1 0 0 0 0 1 1 1 0 0 0 0 0 0 1 1 1 1 1 1 1 1 1 1 1 1 1 2 2 2 2 2 1 1 1 1 1 1 1 1 1 1 1 1
2 2 2 2 1 1 0 1 1 1 1 1 1 1 0 1 1 1 1 1 1 1 1 1 1 1 1 1 1 1 1 1 2 2 2 2 1 1 1 1 1 1 1 1 1 1 1 1 1
2 2 2 1 1 1 1 1 1 1 1 1 1 1 1 1 1 1 1 1 1 1 1 1 1 1 1 1 1 1 1 1 1 1 1 1 1 1 1 1 1 1 1 1 1 1 1 1 1
2 2 2 1 1 1 1 1 1 1 2 2 1 1 1 1 2 2 1 1 1 1 1 1 1 1 1 1 1 1 1 1 1 1 1 1 1 1 1 1 1 1 1 1 1 1 1 1 2
2 2 2 1 0 1 1 1 1 1 2 2 1 1 1 1 2 1 1 1 1 1 1 1 1 1 1 1 1 1 1 1 1 1 1 1 1 1 1 1 1 1 1 1 1 1 1 1 2
2 2 1 1 0 0 1 1 1 2 2 2 1 1 1 1 1 1 1 1 1 1 1 0 0 1 1 1 1 1 2 2 1 1 1 1 1 1 1 1 1 1 1 1 1 1 1 1 1
2 2 1 1 0 0 1 1 1 2 2 2 1 1 1 1 2 2 2 2 2 1 1 0 0 0 1 1 1 1 2 2 2 1 1 1 1 1 1 1 1 1 1 1 1 1 1 1 1
1 1 1 1 0 0 1 1 2 2 2 2 1 1 1 2 3 3 3 2 2 1 1 0 0 0 0 0 1 1 2 2 2 1 1 1 1 1 0 1 1 1 1 1 1 0 0 1 1
1 1 1 0 0 0 1 2 2 2 2 2 2 2 2 3 4 4 3 3 2 1 1 1 0 0 0 0 0 1 1 1 1 1 1 1 1 0 0 1 1 1 1 1 1 0 0 0 0
1 1 1 0 0 0 1 1 2 2 1 2 2 2 2 2 3 3 3 3 2 1 1 1 0 0 0 0 0 0 0 1 1 1 1 1 0 0 0 1 1 1 1 1 0 0 0 0 0
1 1 0 0 0 0 1 1 1 1 1 2 3 2 1 1 2 2 3 3 2 1 1 0 0 0 0 0 0 0 0 0 0 0 0 0 0 0 0 0 1 1 1 0 0 0 0 0 0
0 0 0 0 0 0 1 1 1 1 1 2 3 3 2 1 1 2 2 2 2 2 1 1 1 1 0 0 0 0 0 0 0 0 0 0 0 0 0 0 0 0 0 0 0 0 0 0 0
0 0 0 0 0 0 1 1 1 1 2 2 3 3 2 1 1 1 2 2 2 2 1 1 1 1 1 1 0 0 0 0 0 0 0 1 0 0 0 0 0 0 0 0 0 0 0 0 0
0 0 0 0 0 0 0 1 1 1 2 2 2 2 2 2 2 2 2 3 2 2 1 1 1 1 1 1 1 0 0 0 0 0 0 1 1 1 1 0 0 0 0 0 0 0 0 0 0
0 0 0 0 0 0 0 0 1 1 2 2 2 2 2 2 3 3 3 3 2 2 1 1 1 1 1 1 1 1 1 1 0 0 0 1 1 1 1 1 0 0 0 0 0 0 0 0 0
0 0 0 0 0 0 0 1 1 1 2 2 2 2 2 3 4 4 3 3 3 2 2 1 1 1 1 1 1 1 1 1 1 1 1 1 1 1 1 1 1 1 1 1 1 1 1 1 1
0 0 0 0 1 1 1 1 1 2 2 2 2 2 2 3 3 4 3 3 3 2 2 2 1 1 1 1 1 1 1 1 1 1 1 1 1 1 1 1 1 1 1 1 1 1 1 1 1
0 0 0 0 1 1 2 2 2 2 2 1 2 2 2 3 3 3 3 3 3 2 2 2 2 1 1 1 1 1 1 1 1 1 1 1 1 1 1 1 1 1 1 1 1 1 1 1 1
0 0 0 0 1 1 2 2 2 2 1 1 1 2 2 3 4 4 3 3 3 3 2 2 2 2 1 1 1 1 1 1 1 1 1 1 1 1 1 1 1 1 1 1 1 1 1 1 1
0 0 0 0 0 1 1 1 1 1 1 1 1 1 2 3 4 5 4 4 3 3 3 2 2 2 2 1 1 1 1 1 1 1 1 1 1 1 1 1 1 1 1 1 1 1 1 1 1
0 0 0 0 0 0 0 1 1 2 2 1 1 1 2 2 4 6 6 5 5 4 3 3 3 3 2 2 2 1 1 1 1 1 1 1 1 1 1 1 1 1 1 1 1 1 1 1 1
0 0 1 0 0 0 0 0 1 2 2 2 2 2 2 3 5 6 6 6 6 6 4 4 4 4 4 3 2 2 1 1 1 1 1 1 1 1 1 1 1 1 1 1 2 1 1 1 1
0 0 1 1 0 0 0 1 1 2 2 2 2 3 4 5 5 6 6 7 8 7 6 6 6 6 6 5 3 2 2 2 2 2 2 1 1 1 1 1 1 1 1 2 2 2 1 1 1
0 0 0 0 0 0 0 1 1 2 2 2 3 5 6 7 6 5 5 7 8 8 7 7 7 7 7 5 4 2 2 2 2 2 2 2 1 1 1 1 2 2 2 2 2 2 1 1 1
0 0 0 0 0 0 0 1 1 2 2 4 5 7 7 6 5 4 4 6 7 7 7 7 7 8 7 6 4 3 3 2 2 2 2 2 2 1 1 1 2 2 2 2 2 2 2 2 2
0 0 0 0 0 0 1 1 2 2 4 5 7 7 6 5 4 3 4 5 5 6 7 7 7 8 8 7 5 4 3 3 2 2 2 2 2 2 2 2 2 2 3 2 2 2 2 2 3
0 0 0 0 0 0 1 1 2 4 5 6 6 6 4 3 3 3 4 4 4 5 5 5 6 7 8 8 7 5 4 3 3 3 3 3 3 2 2 2 2 3 3 3 3 2 2 3 3
0 0 0 0 0 0 0 1 3 6 7 6 5 4 3 3 3 4 4 4 3 4 4 4 4 6 8 9 8 7 6 5 4 4 4 4 3 3 3 2 3 3 4 4 3 3 3 3 3
0 0 0 0 0 0 0 1 5 7 7 5 4 3 3 3 4 4 4 4 3 3 3 4 4 6 8 9 9 9 7 6 5 5 5 4 4 3 3 3 3 4 4 4 4 3 3 2 2
Wind_Speed
11 8 4 1 1 2 2 3 7 8 7 8 11 11 9 7 5 5 2 7 8 6 5 9 12 12 13 13 13 14 15 16 17 17 17 18 19 19 19 19 18 18 17 17 16 16 15 14 14
8 7 2 1 3 2 1 4 9 10 11 12 12 11 10 7 7 8 5 7 9 7 5 8 12 12 13 13 13 14 15 16 16 17 17 18 18 19 19 18 18 17 17 16 15 15 14 14 13
9 5 1 2 1 3 3 5 11 11 11 9 7 7 6 6 8 7 7 11 8 6 5 8 13 13 13 13 14 14 15 16 16 16 16 17 17 18 18 17 17 17 16 16 15 14 13 13 12
4 2 1 1 1 4 6 8 11 11 8 9 9 7 5 5 7 10 13 12 10 6 5 8 13 13 13 13 14 15 15 15 15 15 15 16 16 17 17 16 16 16 16 15 14 13 12 12 11
1 2 2 1 0 2 6 10 10 9 6 9 11 9 5 5 14 16 14 12 10 7 5 7 12 13 13 13 14 14 15 15 15 15 15 15 16 17 16 16 15 15 15 14 13 12 11 10 9
2 2 2 1 2 2 5 9 11 12 13 12 11 9 4 8 14 14 13 11 10 8 6 6 11 12 12 13 13 14 14 14 14 14 14 14 15 15 16 15 15 15 14 13 12 12 10 8 7
3 2 2 2 2 3 6 7 11 12 12 9 10 8 5 7 11 13 11 10 8 8 6 4 5 8 11 12 12 13 14 14 14 14 14 14 14 15 15 14 14 14 13 12 12 11 9 8 6
3 2 1 2 3 3 6 6 9 12 10 12 8 8 7 9 11 12 11 9 7 6 5 4 4 4 5 7 11 11 13 14 14 14 14 14 14 13 14 12 13 14 13 12 11 10 9 7 6
4 2 2 4 5 4 7 10 7 8 11 7 5 8 12 14 14 12 10 7 6 6 4 5 5 4 5 5 8 9 12 12 12 11 13 11 5 6 7 10 12 13 12 11 10 9 8 6 5
5 4 7 7 6 6 8 11 9 8 11 9 10 12 14 14 13 12 11 10 8 8 6 5 6 6 5 5 5 3 5 5 5 4 5 4 4 4 6 9 12 12 11 10 10 8 7 4 1
6 7 5 4 5 7 9 8 6 12 8 13 17 16 15 13 11 11 10 10 9 9 8 6 7 6 5 4 4 2 2 3 4 5 5 4 3 3 3 3 5 6 7 4 5 4 2 2 2
3 5 5 4 4 7 8 7 7 8 11 16 19 18 15 13 12 11 10 9 8 9 8 7 7 6 5 5 4 4 3 3 3 4 5 4 3 3 3 3 3 3 2 3 2 2 2 2 3
1 3 1 2 4 7 9 9 9 8 14 16 17 15 14 13 11 9 9 9 8 7 7 7 7 7 6 5 4 5 4 4 4 4 4 5 4 4 4 3 3 3 3 3 3 2 3 3 3
3 3 2 2 4 6 10 8 8 10 16 16 16 14 13 14 13 10 9 9 8 8 7 6 7 7 7 5 4 4 4 4 4 4 5 5 4 4 4 4 3 3 3 3 3 4 3 3 2
3 4 5 1 3 4 9 4 7 14 16 16 15 13 13 12 13 13 12 11 10 9 7 7 8 7 7 6 5 5 4 5 4 4 5 6 5 6 5 4 4 3 4 4 3 2 1 2 2
6 5 3 4 2 4 8 5 7 13 15 14 13 13 11 10 12 12 12 11 10 9 8 8 8 7 6 5 5 4 4 5 5 4 5 6 6 6 5 4 4 4 3 3 3 2 2 1 1
4 2 5 6 2 2 4 5 8 11 14 13 12 11 11 10 11 12 13 13 11 11 10 7 7 7 6 5 4 4 4 4 4 4 5 5 6 7 5 4 4 4 3 3 4 3 2 2 2
5 4 5 5 3 2 2 4 8 10 12 13 13 11 11 12 13 13 13 13 11 10 9 8 7 7 6 4 3 2 3 3 4 4 5 6 5 6 5 4 4 4 3 3 3 3 2 2 2
6 4 6 7 4 3 3 4 8 10 9 10 10 11 11 11 10 11 12 13 11 10 9 8 8 7 5 3 3 3 3 3 3 4 6 6 6 6 5 4 4 4 4 4 4 3 3 2 2
4 5 6 7 4 2 2 2 5 9 13 14 14 13 12 10 9 11 11 12 12 12 11 9 9 8 7 5 4 3 3 3 3 3 4 5 6 6 6 5 4 4 3 3 4 3 2 2 2
6 5 6 5 2 2 4 2 3 5 6 8 11 12 13 14 14 13 13 12 12 12 12 11 10 9 8 6 3 3 2 1 1 2 3 4 6 6 5 6 5 5 4 4 4 4 4 3 2
7 8 6 3 1 2 3 1 6 4 4 7 9 9 11 12 12 11 12 12 13 13 12 10 10 9 7 7 6 6 5 4 4 3 3 4 5 5 5 6 6 5 4 4 4 4 3 4 2
8 7 4 2 3 1 1 3 6 2 3 6 9 10 10 11 12 12 12 13 12 11 11 10 9 8 8 7 8 6 5 4 2 3 3 3 3 4 5 5 5 5 4 5 4 4 4 3 3
5 1 4 5 5 1 4 4 5 4 7 7 7 8 9 10 11 11 10 9 9 10 10 10 10 9 8 8 7 7 7 6 5 4 4 3 2 3 4 5 5 5 4 5 4 4 4 4 3
1 5 4 5 4 5 3 3 7 7 6 8 9 8 7 8 9 9 9 9 9 11 11 10 11 10 9 8 8 8 7 7 7 6 6 5 3 3 4 4 4 4 4 5 4 4 4 4 4
4 9 8 5 5 5 2 3 6 6 4 5 6 7 6 6 7 9 10 11 11 11 11 11 11 11 10 10 9 7 7 5 5 5 5 5 5 4 5 5 5 5 5 5 4 4 4 4 4
3 4 9 8 3 1 3 3 4 2 2 5 5 6 6 7 8 8 8 9 9 11 12 13 12 10 10 10 9 7 7 6 5 5 5 4 4 4 5 5 5 5 5 5 4 3 4 4 4
5 5 6 6 5 2 3 3 4 3 2 4 6 6 5 5 6 7 6 8 8 8 9 9 10 10 9 9 9 8 6 6 5 4 5 5 5 5 5 5 5 5 5 4 4 3 4 4 4
1 1 4 4 6 7 3 6 5 7 6 5 6 7 6 5 6 6 5 6 7 7 7 9 9 8 7 8 8 7 7 6 5 4 5 5 4 5 5 6 6 6 5 5 4 4 4 4 4
3 4 6 4 4 5 5 7 3 5 5 6 6 7 7 6 5 4 5 5 5 6 6 8 9 9 8 8 7 7 6 6 6 6 5 5 5 5 5 5 5 5 5 5 5 6 5 5 5
Wind_Direction
156 153 155 171 32 49 80 97 102 88 68 67 75 82 81 66 90 125 155 133 124 121 118 115 112 111 110 108 110 115 119 122 123 124 125 125 126 127 128 129 129 130 130 130 130 127 125 123 123
158 158 162 66 70 75 82 111 97 102 120 109 85 85 79 73 87 116 129 133 124 120 117 117 117 115 114 114 113 115 119 123 124 126 127 128 129 130 131 131 131 131 131 131 131 129 127 125 125
165 170 141 66 117 159 142 118 110 106 112 105 94 73 75 102 117 131 140 136 125 117 117 126 121 118 117 119 118 117 121 123 125 128 131 132 131 133 134 133 133 133 132 132 132 129 128 128 127
159 145 60 59 203 191 144 138 119 110 89 86 98 78 72 107 122 131 134 132 125 121 123 128 122 121 120 122 123 122 123 125 127 130 132 134 135 136 136 136 135 135 135 135 134 131 132 130 128
121 94 41 8 113 122 135 136 125 116 100 97 98 97 81 84 117 128 134 135 132 129 127 127 126 125 125 126 124 124 126 127 128 130 135 136 138 139 140 140 140 140 140 138 137 136 135 133 133
90 73 62 22 58 82 124 125 111 108 115 111 107 106 100 123 128 135 138 138 139 137 132 131 132 130 128 128 128 129 130 131 132 133 134 138 141 141 141 143 144 146 146 144 143 143 143 143 143
130 110 160 164 109 112 140 133 122 128 132 133 127 107 120 137 142 138 138 136 136 138 135 133 139 137 136 134 133 134 134 134 135 134 135 137 139 141 143 146 149 149 150 150 150 150 153 155 154
164 113 209 162 145 164 155 122 131 130 122 132 128 128 150 157 143 133 134 132 135 139 140 142 136 136 139 139 139 140 140 138 139 139 140 142 143 144 146 148 152 153 153 153 154 156 161 163 168
147 102 218 199 176 179 142 114 111 99 117 128 112 128 147 144 135 132 132 132 141 145 150 150 148 144 143 143 142 136 139 141 142 145 147 145 138 138 146 153 155 157 156 157 159 163 169 176 183
145 171 217 211 184 165 144 131 126 108 107 104 105 118 136 139 138 141 146 150 152 158 165 162 156 156 157 152 130 124 132 135 135 141 143 136 137 149 154 164 163 162 161 164 169 175 181 186 181
170 187 216 225 182 152 140 140 122 127 132 146 145 147 147 145 146 149 152 156 161 163 162 161 159 157 155 140 141 139 130 135 142 150 150 145 143 150 152 151 163 161 164 164 174 181 181 183 185
195 229 209 203 157 136 140 139 127 141 155 156 151 153 151 153 156 159 158 158 157 159 163 161 158 157 155 147 152 153 147 150 154 158 159 151 148 149 153 155 154 152 156 164 176 182 190 201 203
228 264 253 149 121 122 115 122 119 127 140 145 147 152 156 158 161 162 159 158 153 155 160 159 156 157 154 150 161 159 162 164 164 158 157 154 154 154 153 155 158 164 163 170 182 195 198 205 206
269 289 298 94 93 114 117 122 115 145 145 148 153 158 164 165 163 159 156 156 159 160 159 157 152 155 154 154 154 154 162 161 160 162 163 161 156 154 154 156 162 171 176 182 188 193 194 203 201
356 357 349 24 112 128 116 104 151 154 151 154 160 163 168 169 164 166 166 162 164 163 158 158 155 154 157 158 158 154 167 160 164 166 164 165 163 163 161 162 173 181 178 178 181 187 182 205 205
10 13 333 287 148 159 120 174 184 162 157 159 162 167 171 173 171 170 167 164 163 162 162 168 163 159 161 162 164 156 162 162 166 163 164 172 171 169 163 168 181 185 172 169 170 175 175 206 211
15 329 285 292 246 156 128 181 186 174 161 162 166 170 172 175 175 172 169 167 166 165 164 166 157 161 167 166 159 155 155 164 167 164 167 175 174 172 166 172 179 177 172 180 188 171 172 190 206
252 264 274 270 249 113 140 189 179 177 169 169 170 168 172 180 182 175 170 168 165 165 164 164 161 165 164 156 142 138 145 165 169 171 176 173 172 170 165 171 176 172 172 184 184 173 173 185 192
228 251 263 263 242 159 199 194 178 177 177 174 175 174 176 187 185 172 169 168 164 164 164 166 165 170 163 156 158 159 170 173 174 184 181 176 172 169 169 176 176 176 180 187 180 171 171 194 170
242 264 269 278 260 179 138 227 193 181 186 183 176 177 177 175 177 176 171 170 171 172 173 170 172 174 173 174 169 167 163 172 180 183 179 179 174 171 178 178 181 179 174 180 180 170 166 197 171
261 236 244 239 293 51 106 326 254 207 183 183 185 180 176 176 179 179 176 175 174 178 179 178 178 176 177 171 152 144 117 116 154 173 185 187 180 182 182 182 180 179 175 183 190 181 172 186 202
253 245 234 228 123 273 131 224 274 221 183 184 186 186 181 180 176 179 179 177 181 184 181 178 175 174 175 168 163 162 169 182 194 185 186 188 183 181 184 180 179 180 179 185 195 185 175 170 192
230 235 235 222 150 52 38 138 271 270 200 199 189 188 189 182 177 181 183 184 183 181 179 175 170 173 174 170 170 172 178 184 177 170 175 184 188 186 187 183 181 185 188 191 195 182 181 180 182
232 352 10 46 70 336 242 164 261 228 209 198 187 185 186 182 180 185 184 177 175 176 177 175 172 177 177 174 174 177 178 178 171 177 181 185 187 191 190 184 185 191 189 191 194 189 188 189 186
55 91 26 358 7 255 249 152 241 240 200 186 182 176 174 173 177 182 181 178 179 178 177 178 179 182 182 181 185 186 183 181 184 185 186 184 187 195 203 193 190 192 193 192 188 187 193 191 188
219 144 159 194 222 261 306 207 247 255 200 173 169 157 156 159 172 180 181 179 179 178 176 177 185 188 186 187 192 193 187 186 190 190 186 189 194 196 194 193 193 193 192 193 186 189 195 193 199
191 187 172 148 179 207 261 267 305 322 128 138 140 136 158 172 165 173 173 174 178 184 184 183 185 186 189 190 188 193 194 191 190 189 186 189 192 192 189 193 194 196 196 195 187 197 203 196 204
176 170 99 116 148 224 268 233 222 234 206 145 138 141 161 167 162 160 159 168 178 187 186 180 181 188 188 187 187 190 192 191 186 182 190 190 193 194 186 194 194 194 195 197 194 202 206 200 212
329 82 115 130 153 159 217 260 218 191 185 156 159 148 146 148 158 158 162 173 167 167 175 181 183 183 186 188 185 185 182 182 181 186 199 198 194 192 197 200 197 197 198 195 192 205 200 205 219
163 171 141 153 227 168 172 252 245 168 162 145 148 145 139 140 134 139 154 158 155 166 183 194 188 185 187 189 185 188 181 177 188 199 202 201 201 201 202 199 192 195 198 198 197 204 205 206 216